Theta_e
329 328 336 343 341 340 342 346 352 350 349 349 347 347 347 345 345 346 344 340 343 340
323 330 333 341 340 338 346 346 348 349 348 348 347 348 349 346 347 346 344 342 343 340
324 325 330 338 339 338 344 347 346 347 348 348 349 350 350 348 348 345 339 338 341 340
326 328 333 337 340 341 346 347 345 347 348 348 349 350 349 348 346 342 337 341 340 339
327 329 334 337 340 343 345 345 345 347 347 348 349 349 347 346 343 336 335 336 339 337
327 328 334 338 341 343 343 344 345 346 347 347 347 347 347 345 342 336 335 338 338 336
330 330 335 338 341 343 344 344 345 346 346 347 346 345 345 342 337 336 337 338 338 336
331 333 335 337 340 344 344 344 345 345 347 347 346 342 342 340 337 338 337 338 337 338
328 330 335 339 341 343 343 344 345 345 345 345 342 312 316 330 338 337 336 335 335 335
328 331 336 338 340 341 341 343 344 345 344 344 342 308 310 315 338 337 337 336 334 332
330 333 337 338 337 338 338 341 341 342 344 343 337 308 306 311 338 337 337 336 335 334
334 335 334 334 334 335 337 338 340 340 335 333 326 303 302 319 336 335 334 333 333 332
335 334 334 334 334 336 338 336 332 332 334 323 326 298 303 320 333 332 330 331 328 307
338 337 334 333 335 335 331 328 329 328 332 330 325 312 300 305 334 332 330 328 327 326
Wind_Speed
14 12 11 12 10 9 10 11 11 13 14 13 12 10 10 9 9 9 9 10 8 6
14 14 13 14 10 10 11 9 12 13 13 12 12 12 12 9 11 10 9 8 8 6
16 15 15 14 12 14 11 10 12 12 13 13 13 13 12 9 10 10 7 7 8 7
18 17 16 15 14 14 13 13 14 14 14 14 14 14 12 11 12 12 8 9 9 9
19 17 16 16 15 14 15 15 15 15 15 15 15 14 14 13 12 12 10 9 9 9
19 18 17 16 16 16 16 16 16 16 16 17 16 15 14 14 13 10 10 10 10 10
19 20 17 16 16 16 16 17 16 16 16 17 16 15 14 13 12 9 9 9 9 10
19 18 17 17 16 16 16 16 16 16 16 16 15 12 15 14 11 11 10 9 9 8
19 19 18 17 17 16 16 16 16 17 18 18 11 16 15 12 11 11 11 10 8 7
21 20 19 18 19 17 15 15 17 17 17 16 13 17 15 12 11 11 10 10 9 8
22 20 19 16 16 15 14 17 16 16 16 14 11 14 15 13 11 9 10 9 9 8
20 18 18 18 18 16 16 14 14 14 14 13 13 12 15 13 10 10 10 8 8 7
17 18 19 18 16 15 14 14 11 12 12 14 13 10 15 12 9 10 8 7 6 2
15 15 16 16 14 15 14 14 12 12 11 11 12 10 9 10 10 9 8 7 6 5
Wind_Direction
263 256 251 241 230 224 216 206 193 188 184 190 175 179 181 184 194 196 206 193 204 196
264 250 246 239 219 219 221 198 186 191 182 169 170 177 172 183 188 194 191 192 188 191
258 246 239 235 218 214 205 189 182 187 173 164 175 174 176 184 185 184 179 182 181 191
254 244 235 229 221 208 200 194 191 183 168 170 169 173 175 184 175 177 161 174 182 189
253 241 228 223 216 205 200 193 193 181 171 168 171 172 177 179 177 167 168 174 184 186
248 235 221 215 208 201 194 183 184 180 169 170 171 172 178 181 177 168 165 175 185 187
241 225 213 206 198 193 185 177 179 177 167 172 170 171 169 171 170 156 168 177 185 188
236 216 204 196 189 186 177 178 172 161 170 170 169 164 165 169 159 165 168 175 185 186
231 211 195 183 182 172 173 168 159 170 169 166 163 142 153 161 159 168 173 174 178 173
213 197 184 173 172 164 160 157 166 166 164 159 154 153 154 158 158 167 175 171 171 176
194 183 167 160 158 149 154 162 161 156 156 152 149 165 162 148 155 165 169 174 175 177
171 161 150 155 152 151 152 153 150 147 140 136 148 165 146 157 160 164 165 168 173 174
153 152 146 147 144 146 142 133 130 130 136 143 145 156 154 159 167 161 158 163 142 60
134 135 138 138 133 131 125 117 121 124 133 132 144 160 160 174 169 162 162 164 167 167